Cloud_Cover
8 12 12 12 12 12 20 20 20 24 24 24 32 32 32 32 36 36 32 24 24 24 20 20 20 20 12 12 12 12 20 20 20 20 20 20 32 56 76 88 88 88 88 80 76 80 80 88 92 92 92 92 88 80 64 48 48 64 80 92 92 80 76 80 80 76 76 76 68 68 64 44 24 0 0 0 0 0 0 0 0 0 0 0 0 0 0 0 0 0 0 0 0 0 0 0 0 0 0 0 0 0 0
20 20 20 20 20 12 12 20 20 20 24 24 32 32 32 32 32 32 32 32 24 32 24 20 20 12 12 12 12 12 12 12 12 12 12 12 20 24 56 68 76 76 68 64 64 76 80 88 92 92 92 92 88 76 68 68 64 44 80 92 92 88 76 76 76 76 76 76 76 76 68 56 32 0 0 0 0 0 0 0 0 0 0 0 0 0 0 0 0 0 0 0 0 0 0 0 0 0 0 0 0 0 0
24 24 24 24 24 24 20 20 20 24 24 24 24 32 32 32 32 32 32 32 32 32 32 24 20 12 20 20 20 24 20 20 12 8 8 8 8 12 20 32 36 44 48 56 68 80 80 88 92 92 92 92 92 80 76 68 68 68 76 80 92 92 76 68 68 68 80 80 80 80 76 68 48 8 0 0 0 0 0 0 0 0 0 0 0 0 0 0 0 0 0 0 0 0 0 0 0 0 0 0 0 0 0
24 24 24 24 24 20 20 20 20 20 24 20 20 24 24 24 32 32 32 32 32 32 36 36 36 36 32 32 36 36 36 32 24 24 12 8 8 8 12 12 12 8 12 32 48 68 88 92 92 92 92 92 92 76 80 88 88 76 80 88 92 92 68 68 76 68 80 80 80 80 76 76 64 36 8 0 0 0 0 0 0 0 0 0 0 0 0 0 0 0 0 0 0 0 0 0 0 0 0 0 0 0 0
24 24 24 24 24 24 20 20 20 20 20 20 20 20 20 20 24 24 32 32 32 36 36 36 44 44 44 44 44 44 44 44 44 44 24 20 12 8 8 8 8 8 8 24 36 36 64 76 80 80 80 80 76 76 76 80 80 88 80 80 76 76 68 76 80 76 80 88 88 92 80 76 68 56 20 0 0 0 0 0 0 0 0 0 0 0 0 0 0 0 0 0 0 0 8 8 8 0 0 0 0 0 0
32 36 36 44 44 48 32 24 24 24 20 20 20 20 20 20 24 24 24 32 32 32 36 44 44 48 48 48 48 56 56 56 56 56 44 32 24 20 12 12 12 0 0 12 32 48 64 76 80 88 80 80 80 80 80 80 80 92 88 88 88 76 68 80 88 80 80 80 80 92 88 80 76 76 24 0 0 0 0 0 0 0 0 0 0 0 0 0 0 0 0 0 0 0 8 12 12 8 8 8 0 0 0
64 64 68 68 68 68 68 56 48 48 48 48 48 44 56 56 64 68 36 32 36 48 48 56 64 64 64 64 64 64 64 64 64 56 48 48 48 36 24 24 24 20 20 32 48 68 76 88 92 80 88 92 92 88 88 80 88 92 92 92 92 92 80 80 88 80 92 92 92 92 80 80 80 80 44 20 8 0 0 0 0 0 0 0 0 0 0 0 0 0 0 0 0 0 12 12 12 12 8 0 0 0 0
80 88 88 80 80 80 88 76 68 68 68 76 76 80 80 80 80 80 80 76 76 76 76 76 76 76 76 80 80 88 88 88 88 88 88 88 88 80 76 76 76 76 64 64 68 68 76 88 92 92 92 92 92 92 92 92 92 92 92 92 92 92 92 92 88 88 92 92 92 92 92 88 80 80 56 36 20 12 8 0 0 0 0 0 0 0 0 0 0 0 0 0 8 12 20 12 12 12 8 0 0 0 0
88 88 88 80 76 76 76 76 80 80 80 76 68 68 68 76 76 68 76 76 80 80 80 88 88 88 88 88 88 88 88 88 88 88 88 88 88 88 88 88 92 92 88 88 80 64 88 92 92 92 92 92 92 92 92 92 92 92 92 92 92 92 92 92 92 92 92 92 92 92 88 88 88 80 68 48 24 20 20 12 8 0 0 0 0 0 0 0 0 0 8 12 12 12 20 12 8 8 8 12 8 0 0
68 76 80 80 76 64 68 68 64 68 64 56 48 36 36 32 32 36 36 36 48 76 80 80 80 80 80 80 88 88 88 88 88 88 88 88 88 88 88 88 88 92 92 92 92 92 92 92 92 92 92 92 92 92 92 92 92 92 92 92 92 92 92 92 92 92 92 92 92 92 88 88 80 76 68 56 36 32 24 24 12 0 0 0 0 0 0 8 12 8 12 12 20 20 12 8 8 0 8 12 12 12 0
68 68 68 76 76 68 68 68 64 64 56 48 44 36 44 36 36 36 32 24 32 44 48 48 48 56 64 68 76 76 80 80 80 80 80 80 80 76 80 80 80 80 88 92 92 92 88 80 80 80 88 88 92 92 92 92 88 92 92 92 92 92 92 92 92 92 92 92 92 88 88 88 80 76 68 68 56 36 32 24 20 12 0 0 0 0 8 20 24 20 12 12 12 12 12 12 8 8 8 12 12 12 8
76 76 76 76 76 76 68 64 64 56 56 48 44 36 36 36 36 36 36 36 36 36 32 32 32 32 36 36 48 56 64 64 64 68 68 68 68 64 68 64 56 56 68 76 80 88 76 68 68 76 80 88 88 88 88 80 80 92 92 92 92 92 92 92 92 92 92 92 92 88 88 88 88 80 80 80 68 44 36 32 24 12 8 0 0 8 12 24 36 32 20 12 8 8 8 8 12 12 12 12 12 12 8
76 76 68 68 68 68 64 56 48 48 64 56 48 44 36 36 32 24 24 24 24 24 36 36 36 36 36 36 36 36 44 44 48 44 44 56 64 64 68 56 48 48 56 64 68 76 76 68 56 68 80 88 92 88 88 88 88 92 92 92 92 92 88 88 88 92 92 92 92 92 92 92 92 92 88 80 76 68 44 32 24 12 8 8 8 12 20 32 44 36 24 12 8 8 8 8 8 12 8 12 12 12 12
64 68 68 64 64 64 56 56 48 44 44 36 36 32 32 24 20 20 20 12 12 12 20 24 24 24 32 32 32 32 32 36 36 36 36 36 44 48 56 56 48 48 56 68 80 80 76 76 80 80 88 88 88 88 92 92 92 88 92 92 92 92 92 92 88 92 92 92 92 92 92 92 92 92 80 76 76 80 64 44 24 20 20 20 12 20 24 32 44 44 32 20 12 8 8 8 8 12 12 12 12 20 24
36 48 48 48 48 44 44 44 44 44 36 32 32 32 24 20 12 12 8 8 8 0 0 8 8 8 8 8 12 20 20 32 36 44 36 36 44 56 64 56 48 44 68 76 76 80 76 80 80 80 80 92 92 80 80 88 92 92 92 92 92 92 92 92 88 88 92 92 92 88 88 88 88 92 88 76 76 80 68 56 44 36 32 32 24 24 24 24 24 44 36 32 24 20 12 12 20 20 24 20 20 20 20
20 32 24 32 32 36 36 36 36 36 36 36 36 32 32 24 20 20 12 12 8 8 8 0 0 0 0 0 8 12 20 24 32 32 36 36 44 48 64 64 64 56 64 68 64 76 76 76 80 92 92 92 88 88 80 80 88 92 92 92 92 92 92 92 92 92 92 92 88 88 80 80 88 92 92 88 80 80 76 64 56 48 48 44 32 24 24 24 24 24 36 36 36 32 20 32 36 32 24 20 12 20 20
8 12 12 20 20 20 24 24 24 24 24 24 32 32 24 20 20 20 20 12 12 12 12 8 8 0 0 0 0 0 8 8 12 12 20 24 24 24 44 56 64 64 68 64 64 64 68 76 80 92 92 88 88 92 88 80 88 92 92 92 92 92 92 92 92 92 92 92 92 92 88 88 92 92 92 92 92 92 88 80 68 68 64 48 44 44 44 44 36 12 36 44 44 44 36 44 44 32 24 20 12 12 12
8 8 8 8 8 12 12 12 12 12 12 20 20 20 12 12 12 12 12 12 12 12 12 12 8 0 0 0 0 0 0 0 0 0 0 8 12 20 24 32 44 64 56 48 48 64 76 80 88 88 92 92 92 88 88 92 92 88 92 92 92 92 92 88 80 80 80 88 92 92 88 92 92 92 92 92 92 92 92 88 88 88 76 68 68 68 68 68 56 44 48 56 56 56 64 64 56 44 32 24 20 12 8
0 0 8 8 8 8 8 8 8 8 8 8 12 8 8 8 8 8 8 8 8 8 8 8 8 8 8 8 0 0 0 0 0 0 0 8 12 20 20 24 32 48 48 48 48 48 76 88 88 88 88 88 88 92 92 92 92 88 80 88 88 88 92 80 68 68 76 88 92 92 92 92 92 92 92 92 92 92 92 92 92 92 88 88 80 76 76 76 76 68 68 76 76 76 80 80 68 56 44 32 20 12 12
0 0 0 0 0 0 0 0 0 0 0 0 0 8 8 8 0 0 0 0 0 0 0 0 8 8 8 8 0 0 0 0 0 0 0 0 8 12 12 20 24 44 48 48 48 36 64 76 76 88 92 92 88 88 88 88 88 88 88 88 88 92 92 88 80 88 88 92 92 92 92 92 92 92 92 92 92 92 92 92 92 88 88 88 88 80 88 80 80 88 88 88 80 80 80 80 76 68 56 44 32 20 20
0 0 0 0 0 0 0 0 0 0 0 0 0 0 0 0 0 0 0 0 0 0 0 0 0 0 0 0 0 0 0 0 0 0 0 0 0 0 8 8 12 24 48 56 48 44 56 56 56 80 92 92 92 88 92 92 92 92 92 92 92 92 92 92 92 92 92 92 92 92 92 92 92 92 92 92 92 92 92 92 92 80 88 88 88 92 92 88 80 88 88 88 88 88 80 76 76 80 68 64 56 36 32
0 0 0 0 0 0 0 0 0 0 0 0 0 0 0 0 0 0 0 0 0 0 0 0 0 0 0 0 0 0 0 0 0 0 0 0 0 0 0 8 8 20 32 44 56 64 64 68 76 88 92 92 92 92 92 92 92 92 92 92 92 92 92 92 92 92 92 92 92 92 92 92 92 92 92 92 92 92 88 88 88 80 88 92 92 92 92 92 88 88 88 88 80 88 80 76 68 64 68 68 68 56 44
0 0 0 0 0 0 0 0 0 0 0 0 0 0 0 0 0 0 0 0 0 0 0 0 0 0 0 0 0 0 0 0 0 0 0 0 0 0 0 8 8 12 20 24 44 68 80 88 92 92 92 92 92 92 92 92 92 92 92 92 92 92 92 92 92 92 92 92 92 92 92 92 92 92 92 92 92 92 88 88 88 92 92 92 92 92 92 92 92 92 88 88 88 92 80 76 76 64 76 80 80 68 56
0 0 0 0 0 0 0 0 0 0 0 0 0 0 0 0 0 0 0 0 0 0 0 0 0 0 0 0 0 0 0 0 0 0 0 0 0 0 0 8 20 24 12 12 20 32 56 80 92 92 92 92 92 92 92 92 92 92 92 92 92 92 92 92 92 92 92 92 92 92 92 92 92 92 92 92 92 92 92 92 92 92 92 92 92 92 92 92 92 92 92 92 92 92 92 88 76 56 80 88 88 68 68
0 0 0 0 0 0 0 0 0 0 0 0 0 0 0 0 0 0 0 0 0 0 0 0 0 0 0 0 0 0 0 0 0 0 0 0 0 0 0 8 20 20 12 8 12 12 20 44 76 92 92 92 92 92 92 92 92 92 92 92 92 92 92 92 92 92 92 92 92 92 92 92 92 92 92 92 92 92 92 92 92 92 92 92 92 92 92 92 92 92 92 92 92 92 92 80 76 88 92 92 88 76 88
0 0 0 0 0 0 0 0 0 0 0 0 0 0 0 0 0 0 0 0 0 0 0 0 0 0 0 0 0 0 0 0 0 0 0 0 0 0 0 8 20 24 8 8 8 0 8 20 48 92 92 92 92 92 92 92 92 92 92 92 92 92 92 92 92 92 92 92 92 92 92 92 92 92 92 92 92 92 92 92 92 92 92 92 92 92 92 92 92 92 92 92 92 92 92 92 92 92 92 92 88 76 92
0 0 0 0 0 0 0 0 0 0 0 0 0 0 0 0 0 0 0 0 0 0 0 0 0 0 0 0 0 0 0 0 0 0 0 0 0 0 0 24 44 12 8 0 0 0 0 12 44 92 92 92 92 92 92 92 92 92 92 92 92 92 92 92 92 92 92 92 92 92 92 92 92 92 92 92 92 92 92 92 92 92 92 92 92 92 92 92 92 92 92 92 92 92 92 92 92 92 92 92 92 92 92
0 0 0 0 0 0 0 0 0 0 0 0 0 0 0 0 0 0 0 0 0 0 0 0 0 0 0 0 0 0 0 0 0 0 0 0 0 0 0 36 68 32 8 0 0 0 0 24 48 68 88 92 92 92 92 92 92 92 92 92 92 92 92 92 92 92 92 92 92 92 92 88 80 92 92 92 92 92 92 92 92 92 92 92 92 92 92 92 92 92 92 92 92 92 92 92 92 92 88 92 92 92 88
0 0 0 0 0 0 0 0 0 0 0 0 0 0 0 0 0 0 0 0 0 0 0 0 0 0 0 0 0 0 0 0 0 0 0 0 0 0 0 44 88 76 44 12 0 0 12 12 20 24 48 56 64 64 68 68 68 68 88 92 92 92 92 88 88 92 88 88 80 80 76 76 80 80 92 92 92 92 92 92 92 92 92 92 92 92 92 92 92 92 92 92 92 92 92 92 92 92 92 92 92 80 80
0 0 0 0 0 0 0 0 0 0 0 0 0 0 0 0 0 0 0 0 0 0 0 0 0 0 0 0 0 0 0 0 0 0 0 0 0 0 0 0 20 44 80 56 20 0 8 12 20 12 12 36 76 80 64 48 44 44 64 76 88 92 92 92 92 92 88 88 88 92 88 88 80 76 88 92 92 92 92 92 92 92 92 92 92 92 92 92 92 92 92 92 92 92 88 92 92 88 92 88 88 92 92
0 0 0 0 0 0 0 0 0 0 0 0 0 0 0 0 0 0 0 0 0 0 0 0 0 0 0 0 0 0 0 0 0 0 0 0 0 0 0 0 20 64 88 80 64 64 44 24 12 20 20 48 76 88 88 80 80 76 80 88 92 92 92 92 92 92 92 92 92 92 92 92 92 92 92 92 92 92 100 100 100 100 92 92 92 92 92 92 92 92 92 92 92 92 92 92 92 92 92 92 92 92 92
0 0 0 0 0 0 0 0 0 0 0 0 0 0 0 0 0 0 0 0 0 0 0 0 0 0 0 0 0 0 0 0 0 0 0 0 0 0 0 0 8 32 76 92 76 8 8 8 12 20 32 56 76 68 76 76 80 88 92 92 92 92 92 92 92 92 92 92 92 92 92 92 92 92 92 92 92 92 100 92 92 92 92 92 92 92 92 92 92 92 92 92 92 92 92 92 92 92 92 92 92 92 92
0 0 0 0 0 0 0 0 0 0 0 0 0 0 0 0 0 0 0 0 0 0 0 0 0 0 0 0 0 0 0 0 0 0 0 0 0 0 0 0 0 0 32 64 80 76 56 48 56 56 56 64 76 68 76 80 88 64 44 68 92 92 92 92 92 92 92 92 92 92 92 92 92 92 92 92 92 92 92 92 92 92 92 92 92 92 92 92 92 92 92 92 92 92 92 92 92 92 92 92 92 92 92
0 0 0 0 0 0 0 0 0 0 0 0 0 0 0 0 0 0 0 0 0 0 0 0 0 0 0 0 0 0 0 0 0 0 0 0 0 0 0 0 0 0 0 36 80 92 92 92 92 92 68 68 76 80 88 92 92 92 44 48 80 88 80 88 92 92 92 92 92 92 92 92 88 88 92 92 92 92 92 92 92 92 92 92 92 92 92 92 92 92 92 92 92 92 92 92 92 92 92 92 92 92 92
0 0 0 0 0 0 0 0 0 0 0 0 0 0 0 0 0 0 0 0 0 0 0 0 0 0 0 0 0 0 0 0 0 0 0 0 0 0 0 0 0 0 0 12 44 92 92 92 92 92 92 88 76 80 92 92 92 92 48 64 88 92 92 80 76 88 92 92 92 92 92 92 92 92 92 92 92 92 92 92 92 92 92 92 92 92 92 92 92 92 92 92 92 92 92 92 92 92 92 92 92 92 92
0 0 0 0 0 0 0 0 0 0 0 0 0 0 0 0 0 0 0 0 0 0 0 0 0 0 0 0 0 0 0 0 0 8 8 8 0 0 0 0 0 0 0 32 68 92 92 92 92 92 92 92 92 92 92 92 92 92 80 88 92 88 92 88 80 88 88 92 92 92 92 92 92 92 92 92 92 92 92 92 92 92 92 92 92 92 92 92 92 92 92 92 92 92 92 92 92 92 92 92 92 92 92
0 0 0 0 0 0 0 0 0 0 0 0 0 0 0 0 0 0 0 0 0 0 0 0 0 0 0 0 0 0 0 0 0 0 0 0 8 8 8 8 8 8 8 44 88 92 92 92 92 92 92 92 92 92 92 92 92 92 76 80 92 92 92 92 88 80 76 76 88 92 92 92 92 92 92 88 88 88 88 88 92 92 92 92 92 92 92 92 92 92 92 92 92 92 92 92 92 92 92 92 92 92 92
0 0 0 0 0 0 0 0 0 0 0 0 0 0 0 0 0 0 0 0 0 0 0 0 0 0 0 0 0 0 0 0 0 0 0 0 8 12 8 8 8 8 8 48 92 92 92 92 92 92 92 92 92 92 92 92 92 92 80 80 92 92 92 92 88 80 64 48 56 92 92 92 92 92 88 88 88 88 80 80 88 92 92 92 92 92 92 92 88 88 88 92 92 92 92 92 88 92 92 92 92 92 92
0 0 0 0 0 0 0 0 0 0 0 0 0 0 0 0 0 0 0 0 0 0 0 0 0 0 0 0 0 0 0 0 0 0 0 0 0 0 0 0 0 0 12 56 92 92 92 92 92 92 92 92 92 92 92 92 92 92 92 92 92 92 92 88 88 88 56 36 36 80 92 92 92 92 92 88 88 88 76 80 88 92 92 92 92 88 92 88 88 88 88 88 88 88 88 88 92 92 92 92 92 92 88
0 0 0 0 0 0 0 0 0 0 0 0 0 0 0 0 0 0 0 0 0 0 0 0 0 0 0 0 0 0 0 0 0 0 0 0 0 0 0 0 0 0 12 56 88 92 92 92 92 92 92 92 92 92 92 92 92 92 92 92 92 92 80 80 80 88 80 56 44 88 92 92 92 92 92 92 88 88 88 88 88 92 88 88 88 80 88 88 88 88 88 88 88 88 88 88 88 88 88 88 88 88 88
0 0 0 0 0 0 0 0 0 0 0 0 0 0 0 0 0 0 0 0 0 0 0 0 0 0 0 0 0 0 0 0 0 0 0 0 0 0 0 0 0 0 24 44 64 92 92 92 92 92 92 92 92 92 92 92 92 92 92 92 92 88 88 88 80 68 76 68 76 92 92 92 92 92 92 92 92 92 92 92 92 88 88 88 88 88 88 88 88 88 88 88 88 88 88 88 88 88 88 88 88 88 88
0 0 0 0 0 0 0 0 0 0 0 0 0 0 0 0 0 0 0 0 0 0 0 0 0 0 0 0 8 8 8 12 12 12 0 0 0 0 0 0 0 0 24 32 36 88 92 92 92 92 92 92 92 92 92 92 92 92 92 92 92 88 92 92 92 76 64 68 92 92 92 92 92 92 92 92 88 88 92 88 88 88 88 88 88 92 92 92 92 92 92 92 88 88 88 88 88 88 88 88 88 88 80
0 0 0 0 0 0 0 0 0 0 0 0 0 0 0 0 0 0 0 0 0 0 0 0 0 0 0 0 8 8 12 20 20 20 12 8 8 8 0 0 0 0 32 32 32 68 88 92 92 92 92 92 92 92 92 92 92 92 92 92 92 92 88 88 92 92 76 76 80 92 92 92 92 92 92 92 88 80 80 80 80 76 80 80 80 80 88 88 88 88 88 88 88 88 88 88 88 88 88 88 88 80 80
0 0 0 0 0 0 0 0 0 0 0 0 0 0 0 0 0 0 0 0 0 0 0 0 0 0 0 8 12 8 8 12 24 32 24 24 24 24 24 12 8 8 48 44 32 32 80 92 92 92 92 92 92 92 92 92 92 92 92 92 92 92 88 88 88 92 88 76 68 80 88 88 80 80 80 88 88 88 76 76 76 68 76 76 80 76 76 80 88 88 88 88 88 88 88 80 80 80 80 80 80 80 80
0 0 0 0 0 0 0 0 0 0 0 0 0 0 0 0 0 0 0 0 0 0 0 0 0 0 0 20 44 48 36 48 56 48 64 56 48 68 68 48 24 24 64 56 32 12 32 64 92 92 92 92 92 92 92 92 92 92 92 92 92 92 92 80 80 92 92 76 64 76 76 76 68 64 68 76 80 80 76 76 68 68 68 76 76 80 80 80 80 88 88 88 88 88 80 80 80 80 80 80 80 80 76
0 0 0 0 0 0 0 0 0 0 0 0 0 0 0 0 0 0 0 0 0 0 0 0 0 0 0 12 44 88 68 76 88 76 80 76 76 92 92 80 64 48 76 68 48 20 8 12 44 92 92 92 92 92 92 92 92 92 92 92 92 92 92 92 88 92 92 76 64 64 68 56 44 20 48 68 76 76 76 68 68 68 68 68 76 80 80 80 80 80 80 80 88 80 80 80 80 80 76 76 76 76 68
0 0 0 0 0 0 0 0 0 0 0 0 0 0 0 0 0 0 0 0 0 0 0 0 0 8 12 24 48 92 64 76 92 92 88 88 88 92 92 88 80 76 80 88 68 32 8 0 8 36 80 92 92 92 92 92 92 92 92 92 92 92 92 92 92 92 92 76 56 48 56 44 20 0 44 68 76 68 68 68 68 68 68 76 76 76 80 80 80 80 80 80 80 80 80 80 80 76 76 76 68 68 68
0 0 0 0 0 0 0 0 0 0 0 0 0 0 0 0 0 0 0 0 0 0 0 0 0 20 32 44 64 80 80 88 92 92 92 92 92 92 92 92 88 80 80 88 80 36 12 0 0 20 76 92 92 92 92 92 92 92 92 92 92 100 92 92 92 92 92 80 64 48 48 32 8 0 36 64 68 76 76 76 68 68 68 68 76 76 76 80 80 80 80 80 80 80 80 80 76 76 76 76 68 68 64
0 0 0 0 0 0 0 0 0 0 0 0 0 0 0 0 0 0 0 0 0 0 0 0 0 20 36 48 64 80 88 92 92 92 92 92 92 92 92 92 92 88 88 92 88 56 20 8 8 32 80 92 92 92 92 92 92 92 92 92 92 92 92 92 92 92 92 92 88 88 56 32 20 44 56 68 76 76 76 76 76 76 76 80 80 80 80 80 80 76 80 80 76 68 64 64 68 68 68 68 68 64 64
0 0 0 0 0 0 0 0 0 0 0 0 0 0 0 0 0 0 0 0 0 0 0 0 12 36 48 48 56 80 88 92 92 88 88 88 88 92 92 92 92 92 92 92 88 68 24 8 12 48 88 92 92 92 92 92 92 92 92 92 92 92 92 92 92 92 92 92 92 92 88 56 36 56 64 64 76 80 80 80 80 80 80 80 80 80 80 80 80 80 80 80 76 56 56 64 64 64 64 64 64 64 64
0 0 0 0 0 0 0 0 0 0 0 0 0 0 0 0 0 0 0 0 0 0 0 20 36 32 44 56 68 92 92 92 88 88 88 88 88 88 92 92 92 92 92 92 88 68 32 8 12 48 80 92 92 92 92 92 92 92 92 92 92 92 92 92 92 92 92 92 92 92 92 80 64 68 64 68 76 80 88 88 88 80 80 80 80 80 80 80 80 80 76 76 68 64 64 64 64 64 64 64 64 64 64
0 0 0 0 0 0 0 0 0 0 0 0 0 0 0 0 0 0 0 0 0 0 0 8 20 36 36 44 64 92 92 92 88 88 88 88 88 92 92 92 92 92 92 92 92 88 44 12 8 32 80 92 92 92 92 92 92 92 92 92 92 92 92 92 92 92 92 92 92 92 92 80 64 36 64 68 76 80 88 88 80 80 76 80 80 80 76 76 76 76 68 68 68 76 68 68 68 64 68 64 64 64 56
0 0 0 0 0 0 0 0 0 0 0 0 0 0 0 0 0 0 0 0 0 0 0 0 20 44 44 68 92 92 92 92 92 88 88 88 92 92 92 92 92 92 92 92 92 92 64 32 8 0 68 92 92 92 92 92 92 92 92 92 92 92 92 92 92 92 92 92 92 92 88 76 56 20 64 76 76 76 80 80 80 80 76 80 80 76 76 68 68 56 56 64 68 68 68 64 64 68 68 64 64 56 48
0 0 0 0 0 0 0 0 0 0 0 0 0 0 0 0 0 0 0 0 0 0 0 8 20 44 48 76 92 92 92 92 92 92 88 88 88 92 92 92 92 92 92 92 92 92 76 48 20 0 64 88 92 92 92 92 92 92 92 92 92 92 92 92 92 92 92 92 92 92 92 92 80 36 56 68 76 76 80 80 80 80 80 80 76 68 68 64 56 56 48 56 64 64 64 64 64 64 64 56 56 48 44
0 0 0 0 0 0 0 0 0 0 0 0 0 0 0 0 0 0 0 0 0 0 0 8 20 36 76 92 92 88 88 88 88 92 88 88 88 88 88 88 92 92 92 92 92 92 80 64 44 12 56 76 80 88 92 92 92 92 92 92 92 92 92 92 92 92 92 92 92 92 92 92 92 76 76 76 76 80 80 80 88 88 80 80 80 76 68 68 64 64 48 56 64 64 64 56 56 56 56 48 48 44 44
0 0 0 0 0 0 0 0 0 0 0 0 0 0 0 0 0 0 0 0 0 8 24 32 32 48 76 88 88 80 88 92 92 88 88 88 88 92 88 88 92 92 92 92 92 92 92 80 64 36 20 44 76 80 92 92 92 92 92 92 92 92 92 92 92 92 92 92 92 92 92 92 92 76 76 76 76 80 80 88 88 88 88 80 76 76 76 76 76 68 64 56 48 48 48 48 48 44 44 44 44 36 32
0 0 0 0 0 0 0 0 0 0 0 0 0 0 0 0 0 0 0 12 44 80 76 64 64 76 80 88 88 92 92 92 92 92 92 92 88 76 88 92 92 92 92 92 92 92 92 92 88 64 20 12 36 92 92 92 88 88 92 92 92 92 92 92 92 92 92 92 92 92 92 92 92 80 68 68 76 76 80 88 88 80 80 76 64 64 68 80 80 76 68 64 48 44 36 36 36 36 36 36 36 32 32
0 0 0 0 0 0 0 0 0 0 0 0 0 0 0 0 0 0 0 24 44 20 44 56 56 56 76 80 88 92 92 92 92 92 92 92 88 80 92 92 92 92 92 92 92 92 92 92 80 56 24 12 20 80 76 80 88 92 92 92 92 92 92 92 92 92 92 92 92 92 92 92 92 88 80 76 80 80 88 88 88 80 80 76 68 80 80 80 80 68 64 56 48 36 32 32 32 32 32 32 32 24 24
0 0 0 0 0 0 0 0 0 0 0 0 0 0 0 0 0 0 8 48 76 32 68 68 64 56 68 80 88 92 92 92 92 92 92 92 92 92 92 92 92 92 92 92 92 92 92 92 88 64 24 8 8 20 64 80 92 92 92 92 92 92 88 88 92 92 92 92 92 92 92 92 92 92 92 92 88 88 88 88 80 80 80 76 76 80 80 76 68 68 64 48 36 20 24 24 24 32 32 32 32 24 24